EHI
0 0 1 2 3 3 2 1 0 1 1 1 1 5 12 18 22 23 21 17 11 6 5 4 4 4 4 5 5 4 3 3 3 3 2 2 1 1 2 3 3 4 4 4
0 0 1 2 2 2 1 0 0 1 2 1 2 4 10 15 19 22 22 17 11 7 5 4 4 4 4 5 6 5 4 3 3 2 1 1 0 0 1 2 3 4 4 4
0 0 1 1 1 1 0 0 0 1 2 2 1 3 6 11 15 19 21 17 12 9 6 4 4 5 5 6 7 7 6 5 4 3 2 1 1 0 0 1 2 4 4 4
0 0 0 0 0 0 0 0 0 0 1 1 1 2 4 8 13 18 20 17 13 10 8 6 5 7 8 8 9 9 8 7 7 7 6 4 2 1 0 1 3 3 4 4
0 0 0 0 0 0 0 0 0 0 0 0 0 1 3 7 11 16 18 17 13 11 10 8 6 8 10 12 12 12 12 11 11 10 8 7 5 3 2 3 4 4 5 5
0 0 0 0 0 0 0 0 0 0 0 0 0 1 2 5 9 14 16 15 12 11 10 9 8 9 11 14 16 16 16 16 14 12 9 7 7 6 6 6 6 6 5 5
0 0 0 0 0 0 0 0 0 0 0 0 0 0 1 3 7 11 12 12 11 10 11 11 11 11 12 14 17 18 18 17 17 14 10 7 7 8 8 8 7 6 4 2
0 0 0 0 0 0 0 0 0 0 0 0 0 0 0 3 7 9 10 9 9 11 13 13 12 13 14 15 17 19 19 18 17 15 10 6 6 7 8 9 8 6 3 1
0 0 0 0 0 0 0 0 0 0 0 0 0 0 1 5 8 9 8 7 9 12 14 14 13 13 14 15 17 20 21 19 18 17 12 7 6 7 8 9 8 6 4 2
0 0 0 0 0 0 0 0 0 0 0 0 0 0 3 6 8 8 7 7 9 12 14 15 15 14 14 14 16 19 20 19 18 17 15 11 8 8 9 8 6 5 4 3
0 0 0 0 0 0 0 0 0 0 0 0 0 1 4 7 8 7 5 5 7 10 13 15 14 12 12 13 15 16 17 18 18 17 15 13 11 10 9 7 4 3 4 4
0 0 0 0 0 0 0 0 0 0 0 0 0 1 4 5 6 6 5 4 6 9 11 12 11 10 11 14 16 16 16 18 19 17 16 14 12 10 7 5 3 3 3 4
0 0 0 0 0 0 0 0 0 0 0 0 1 2 3 3 4 5 6 5 7 10 12 11 11 11 13 15 17 17 18 19 18 17 16 13 10 8 5 3 3 4 4 4
0 0 0 0 0 0 0 0 0 0 0 0 1 2 3 3 3 5 7 7 10 14 15 14 13 13 14 16 16 17 18 18 15 14 14 11 8 6 5 4 4 4 5 4
0 0 0 0 0 0 0 0 0 0 0 1 1 1 2 4 4 5 8 10 12 15 17 16 14 13 14 14 15 15 16 14 12 10 9 9 7 6 6 5 4 5 5 4
0 0 0 0 0 0 0 0 0 0 1 2 2 2 3 5 6 7 10 12 13 12 13 13 11 11 11 12 12 13 12 11 9 7 6 7 6 7 7 5 5 5 5 3
0 0 0 0 0 0 1 0 0 0 1 2 2 2 4 6 8 9 13 14 12 9 8 8 7 7 8 8 9 10 10 10 8 5 5 6 6 7 6 6 5 5 4 3
0 0 0 0 0 0 0 0 0 0 0 1 2 3 5 9 11 11 13 13 10 8 7 6 5 5 5 6 7 8 9 9 8 6 5 6 6 6 5 5 5 4 4 4
0 0 0 0 0 0 0 0 0 0 1 2 5 7 9 12 14 14 14 12 9 7 7 7 6 4 4 5 6 7 8 8 8 7 6 6 6 5 4 4 4 4 3 2
0 0 0 0 0 0 0 0 0 1 1 3 7 11 11 12 13 14 14 14 11 8 8 8 6 5 5 6 6 6 6 7 7 7 6 5 5 5 4 3 3 3 3 2
0 0 0 0 0 0 0 0 0 1 1 2 6 9 9 8 9 10 12 14 12 8 7 7 6 5 6 6 5 4 4 5 6 7 6 4 3 4 3 3 3 3 3 3
0 0 0 0 0 0 0 0 0 1 1 2 3 5 6 6 7 8 10 11 10 7 6 5 4 4 4 5 5 4 3 3 4 5 4 3 2 3 3 3 3 3 3 3
0 0 0 0 0 0 0 0 0 1 3 3 3 3 4 5 5 7 8 9 7 5 4 4 3 2 2 3 5 5 4 3 3 3 3 2 2 3 3 3 3 3 3 3
0 0 0 0 1 1 1 0 0 2 4 4 4 3 3 4 5 6 8 9 7 5 3 3 4 3 2 2 4 5 4 3 3 3 3 1 1 2 3 2 3 3 3 2
0 0 0 1 2 2 2 1 0 1 3 5 5 4 3 4 5 7 9 11 10 6 3 3 4 4 3 2 2 3 3 3 4 3 3 2 1 1 1 1 1 2 1 1
0 0 0 1 2 3 3 2 1 1 3 7 7 5 3 4 6 8 11 12 12 9 4 2 4 5 5 3 2 2 3 4 4 4 3 2 1 1 0 0 0 1 0 0
Wind_Speed
2 2 3 6 6 6 4 4 5 5 2 3 4 3 5 7 8 9 8 8 8 8 7 7 8 8 7 5 4 4 4 3 2 2 2 2 1 1 1 1 1 2 1 2
2 5 9 6 4 4 4 4 4 3 1 3 4 2 1 5 8 10 11 10 10 8 6 7 7 7 7 6 4 4 4 3 3 2 2 2 2 1 1 1 1 1 2 1
6 8 5 4 5 4 4 6 6 4 2 3 5 2 0 2 3 4 6 8 9 11 10 8 7 7 7 6 6 5 4 4 3 2 2 2 2 2 2 1 1 1 1 2
6 7 4 5 5 5 5 6 6 6 3 1 3 2 5 4 3 5 6 7 8 9 9 8 8 8 8 8 6 5 5 4 3 3 3 4 3 2 1 1 0 1 1 1
7 5 5 6 7 4 5 4 3 4 4 2 0 3 5 2 4 6 7 8 8 9 11 11 10 10 9 7 6 5 4 4 3 3 4 3 2 1 1 1 1 1 1 1
8 6 5 6 5 3 3 3 4 4 4 1 3 3 4 5 8 8 7 7 8 9 10 9 9 8 7 6 6 5 5 4 3 3 3 4 3 3 2 2 1 0 0 1
6 6 5 2 2 4 3 6 4 5 4 3 1 3 6 6 8 10 10 8 7 8 8 8 8 8 8 8 7 6 6 4 4 4 3 3 3 4 4 2 2 1 0 0
3 6 4 3 5 4 2 8 7 4 3 3 1 2 5 4 5 6 7 7 8 8 8 8 9 8 8 8 8 7 6 5 4 4 3 2 3 2 2 2 2 2 1 1
5 6 5 3 3 5 2 2 7 7 1 1 1 2 4 2 4 5 7 8 8 9 9 8 8 8 7 7 7 8 7 5 4 4 3 2 2 2 2 2 2 1 1 1
7 3 5 4 1 1 5 5 5 5 4 1 2 2 4 4 5 5 6 7 8 8 8 7 7 7 7 6 6 6 6 6 4 4 3 3 2 2 2 2 2 2 1 1
5 4 4 3 1 3 1 3 5 4 5 6 2 6 7 9 8 8 8 8 8 7 7 6 6 6 6 6 6 5 5 5 4 4 3 3 2 2 2 2 2 1 1 1
3 6 1 4 4 3 4 5 6 5 2 4 4 7 4 7 7 7 7 7 7 7 7 6 6 6 6 6 6 6 5 5 5 4 4 3 3 3 2 2 1 1 1 1
4 6 3 7 8 5 3 1 4 6 4 4 5 6 1 4 5 6 8 8 7 7 7 6 5 5 5 5 5 5 5 5 4 4 5 3 3 3 2 1 1 1 1 1
6 5 6 7 6 3 1 1 2 5 3 3 5 5 3 4 5 6 8 9 8 7 7 6 5 4 4 4 5 5 4 4 5 4 5 4 3 2 2 2 2 1 1 1
6 3 2 3 3 1 0 1 1 3 5 6 5 6 8 8 8 8 9 9 9 8 7 7 6 5 5 4 4 5 4 4 4 4 4 3 2 2 2 2 2 1 1 2
4 2 2 2 1 2 2 2 1 2 3 4 4 2 4 5 6 6 8 10 9 8 8 7 7 7 6 6 5 5 4 4 4 4 3 3 2 2 1 1 2 1 1 1
1 3 2 2 3 3 2 3 1 1 2 5 5 5 4 6 7 9 10 10 10 9 8 8 7 7 6 6 6 6 5 5 4 4 3 3 2 2 1 1 1 1 1 1
4 3 3 1 3 1 6 3 2 4 3 2 4 5 7 8 6 6 7 9 9 9 8 7 7 6 5 5 5 5 5 5 4 4 3 3 2 2 1 1 1 1 1 1
5 6 4 3 2 3 5 3 1 3 2 0 5 7 7 8 8 3 2 6 7 7 6 6 6 6 5 5 5 5 4 4 4 4 3 3 3 2 2 1 2 2 1 1
4 5 5 4 3 4 5 6 1 6 1 2 4 8 8 7 5 3 4 6 6 6 5 5 5 6 5 4 5 5 4 4 3 3 4 3 4 4 3 3 2 2 2 1
4 3 3 4 3 4 5 5 3 4 5 2 4 6 7 4 5 5 5 6 6 6 6 6 6 5 5 5 6 5 4 4 4 3 3 2 3 3 3 2 2 2 1 1
1 1 1 3 2 5 5 3 3 5 3 4 5 5 6 5 5 5 6 6 6 5 5 6 5 4 3 5 6 5 4 3 2 2 2 2 2 2 2 2 2 1 1 1
1 3 3 4 4 4 1 2 2 3 5 4 4 4 7 6 4 4 5 6 5 5 5 4 5 4 3 4 5 5 4 3 3 2 2 2 2 2 2 3 2 2 2 2
4 2 3 2 1 1 2 3 3 4 5 5 6 6 7 6 5 5 5 5 5 4 5 4 5 4 2 2 3 4 4 4 4 3 2 2 2 1 1 1 2 2 2 2
3 3 3 2 3 4 4 3 3 3 5 6 6 6 7 7 5 5 5 5 4 4 3 4 4 4 3 3 2 3 3 4 3 2 2 2 2 2 2 1 1 3 3 4
2 1 3 3 4 2 3 3 2 3 3 5 6 5 4 5 5 5 5 4 4 4 3 3 3 3 2 3 2 2 3 4 4 2 2 2 2 1 2 2 0 2 1 3
Wind_Direction
276 92 230 224 198 188 190 235 254 258 205 113 132 151 164 162 153 156 158 155 154 158 158 148 146 142 133 128 122 133 126 125 115 107 109 105 103 93 72 74 86 89 86 82
4 268 242 230 215 192 206 227 251 298 181 129 126 114 173 167 170 170 167 164 162 158 152 153 150 144 143 149 147 144 144 141 138 145 149 140 137 131 129 62 51 64 74 76
213 242 244 248 250 237 243 202 201 199 92 77 109 39 271 203 140 148 161 167 166 164 163 162 159 157 157 163 165 162 164 154 154 141 109 92 66 52 52 41 51 51 82 85
249 258 257 264 252 200 245 221 189 180 140 209 142 179 252 183 171 166 167 168 176 169 164 164 164 165 171 176 172 163 162 156 155 142 130 132 136 145 183 162 116 47 57 71
257 259 245 242 243 208 211 205 174 172 142 112 23 132 269 165 191 197 182 175 176 171 168 171 175 175 174 173 169 164 155 149 147 141 145 146 145 161 135 107 93 46 21 36
257 259 237 233 246 223 179 73 41 55 72 62 242 146 256 214 202 188 180 171 165 165 166 172 174 169 167 165 162 159 151 154 152 144 140 147 147 141 122 121 129 104 4 352
294 284 260 224 307 319 93 84 34 5 14 260 226 143 247 234 192 181 176 173 164 156 158 163 163 168 168 166 166 165 158 163 162 151 149 154 150 145 148 158 157 156 137 325
245 283 257 213 193 207 169 131 153 191 219 273 356 214 257 241 175 162 162 165 161 155 166 171 168 168 167 168 168 166 164 165 162 160 162 156 148 150 157 162 160 169 181 206
196 255 273 244 211 153 140 174 166 137 138 100 289 293 316 47 133 151 160 160 162 165 173 172 166 163 161 162 165 164 160 155 156 158 145 139 146 144 151 152 141 144 147 128
176 231 285 288 41 23 154 150 89 106 138 198 299 241 221 213 178 171 166 165 170 170 168 161 159 156 156 159 157 156 155 158 152 139 140 138 143 145 146 130 122 117 117 106
162 168 291 358 169 204 95 76 103 114 142 147 209 261 217 189 182 178 176 166 165 165 162 152 148 148 146 141 142 148 153 143 139 144 138 128 123 121 123 125 129 136 133 129
164 133 237 270 267 189 149 161 141 140 201 157 162 259 243 180 174 161 153 145 138 141 147 141 142 141 139 140 140 144 147 145 150 145 134 130 121 110 105 108 118 132 146 158
114 105 63 345 344 358 41 96 143 130 126 156 165 246 216 129 135 143 141 141 140 134 131 127 132 144 149 146 148 147 142 142 140 131 125 119 111 109 116 124 119 115 121 128
105 112 151 188 221 236 307 319 133 117 135 193 206 202 202 162 152 144 137 139 137 133 131 127 127 131 128 133 138 137 134 134 133 130 128 130 134 139 145 133 112 100 104 94
85 113 174 208 210 163 308 272 155 141 174 176 209 193 203 187 172 156 145 140 139 139 140 140 145 142 136 129 128 129 129 127 127 122 127 138 154 151 136 129 118 107 107 97
68 109 52 351 16 45 4 335 154 153 145 146 130 219 220 164 142 139 145 147 150 156 156 152 149 146 146 143 142 141 137 131 128 131 137 146 141 135 145 151 141 129 118 102
52 111 91 287 313 49 338 301 311 107 137 151 180 212 166 138 151 159 160 155 159 161 157 156 157 154 149 149 151 155 152 144 138 141 144 147 143 136 152 158 140 171 172 125
151 125 134 166 42 245 246 270 94 102 89 137 162 158 155 150 153 157 158 159 163 164 163 163 158 155 153 150 150 146 139 138 133 135 143 151 149 150 156 155 172 196 169 147
153 147 135 129 149 273 300 322 72 120 57 45 135 134 134 116 90 76 161 154 162 162 160 158 156 150 150 154 150 140 135 138 138 150 164 172 171 166 173 190 209 205 171 171
56 109 123 131 145 218 256 287 288 104 53 312 134 141 143 121 124 204 169 136 140 141 142 141 139 133 144 158 144 136 144 150 166 180 185 181 176 180 193 202 207 196 172 202
7 27 114 152 183 239 272 302 49 114 225 236 132 136 138 144 174 172 139 127 130 136 135 128 129 137 158 160 146 146 157 181 192 183 175 176 181 188 194 192 191 191 182 181
139 101 165 133 155 245 298 36 116 195 187 107 101 112 118 120 111 118 127 131 131 127 121 121 122 133 158 157 148 152 177 194 178 164 162 176 185 197 183 184 201 197 166 157
74 187 182 169 200 241 271 129 169 135 110 105 109 107 109 107 115 131 134 133 129 130 127 125 132 132 142 159 157 167 184 165 152 155 179 198 194 201 189 184 190 190 178 178
325 7 72 59 320 309 65 64 58 87 105 109 111 113 111 110 115 124 122 123 128 130 131 125 122 127 144 174 168 173 173 161 154 172 201 200 185 198 181 182 183 180 187 190
293 1 49 36 326 8 10 29 61 72 88 95 99 104 114 114 117 130 130 130 131 132 138 137 140 155 173 165 165 164 153 146 151 172 192 192 192 183 177 182 201 198 207 196
271 174 153 210 237 193 273 313 26 92 108 118 111 101 112 122 135 137 140 143 138 132 133 133 142 154 168 157 160 161 153 149 151 165 190 191 193 180 169 163 7 343 261 223